Carson City, NV

4:54 AM PDT on April 24, 2018 (GMT -0700)
Carson

Weather History for KCXP - March, 2013

Change the Weather History Date:

Thursday, March 21, 2013

  Actual Average Record
Temperature  
Mean Temperature 48 °F -  
Max Temperature 59 °F 58 °F 64 °F (2012)
Min Temperature 37 °F 29 °F 32 °F (2014)
Degree Days  
Heating Degree Days 17    
Moisture  
Dew Point 20 °F    
Average Humidity 35    
Maximum Humidity 65    
Minimum Humidity 20    
Precipitation  
Precipitation 0.00 in - - ()
Sea Level Pressure  
Sea Level Pressure 30.02 in    
Wind  
Wind Speed 9 mph (NNW)    
Max Wind Speed 18 mph    
Max Gust Speed 32 mph    
Visibility 10 miles    
Events      
Averages and records for this station are not official NWS values.
T = Trace of Precipitation, MM = Missing Value Source: NWS Daily Summary

Daily Weather History Graph

Daily Weather History Graph

Search for Another Location

Airport or City:

Astronomy

Mar. 21, 2013 Rise Set
Actual Time 7:00 AM PDT 7:12 PM PDT
Civil Twilight 6:33 AM PDT 7:38 PM PDT
Nautical Twilight 6:02 AM PDT 8:10 PM PDT
Astronomical Twilight 5:30 AM PDT 8:42 PM PDT
Moon 1:48 PM PDT (3/21) 3:23 AM PDT (3/21)
Length of Visible Light 13h 05m
Length of Day
12h 12m
Waxing Gibbous, 69% of the Moon is Illuminated
Mar 21
Waxing Gibbous
Mar 27
Full
Apr 2
Last Quarter
Apr 10
New
Apr 18
First Quarter

Hourly Weather History & Observations

Time (PDT) Temp. Windchill Dew Point Humidity Pressure Visibility Wind Dir Wind Speed Gust Speed Precip Events Conditions
12:15 AM 48.2 °F - 28.4 °F 46% 29.99 in 10.0 mi SSE 6.9 mph 17.3 mph N/A   Overcast
12:35 AM 48.2 °F - 26.6 °F 43% 30.00 in 10.0 mi SE 15.0 mph 24.2 mph N/A   Overcast
12:55 AM 48.2 °F - 26.6 °F 43% 30.01 in 10.0 mi South 9.2 mph 20.7 mph N/A   Overcast
1:15 AM 46.4 °F 40.7 °F 26.6 °F 46% 30.01 in 10.0 mi SSW 12.7 mph 23.0 mph N/A   Overcast
1:35 AM 46.4 °F 39.8 °F 26.6 °F 46% 30.01 in 10.0 mi South 16.1 mph 21.9 mph N/A   Mostly Cloudy
1:55 AM 46.4 °F 40.4 °F 24.8 °F 43% 30.01 in 10.0 mi SSW 13.8 mph 32.2 mph N/A   Scattered Clouds
2:15 AM 46.4 °F 40.7 °F 24.8 °F 43% 30.01 in 10.0 mi SSW 12.7 mph 27.6 mph N/A   Partly Cloudy
2:35 AM 46.4 °F 40.7 °F 24.8 °F 43% 30.01 in 10.0 mi West 12.7 mph 32.2 mph N/A   Clear
2:55 AM 46.4 °F 39.2 °F 24.8 °F 43% 30.01 in 10.0 mi WNW 18.4 mph 25.3 mph N/A   Clear
3:15 AM 46.4 °F 39.8 °F 24.8 °F 43% 30.01 in 10.0 mi West 16.1 mph 20.7 mph N/A   Clear
3:35 AM 44.6 °F 37.8 °F 24.8 °F 46% 30.01 in 10.0 mi WSW 15.0 mph 31.1 mph N/A   Clear
3:55 AM 44.6 °F 36.9 °F 21.2 °F 39% 29.99 in 10.0 mi West 18.4 mph 28.8 mph N/A   Clear
4:15 AM 44.6 °F 40.7 °F 24.8 °F 46% 30.02 in 10.0 mi WNW 6.9 mph 17.3 mph N/A   Clear
4:35 AM 41.0 °F - 24.8 °F 53% 30.03 in 10.0 mi Calm Calm - N/A   Clear
4:55 AM 37.4 °F - 23.0 °F 56% 30.03 in 10.0 mi Calm Calm - N/A   Clear
5:15 AM 39.2 °F 35.9 °F 23.0 °F 52% 30.03 in 10.0 mi NNW 4.6 mph - N/A   Clear
5:35 AM 37.4 °F 33.8 °F 24.8 °F 60% 30.04 in 10.0 mi ESE 4.6 mph - N/A   Clear
5:55 AM 37.4 °F - 23.0 °F 56% 30.04 in 10.0 mi Calm Calm - N/A   Clear
6:15 AM 39.2 °F 35.9 °F 23.0 °F 52% 30.05 in 10.0 mi NNE 4.6 mph - N/A   Clear
6:35 AM 37.4 °F 31.4 °F 23.0 °F 56% 30.05 in 10.0 mi North 8.1 mph - N/A   Clear
6:55 AM 37.4 °F 32.1 °F 23.0 °F 56% 30.05 in 10.0 mi WNW 6.9 mph - N/A   Clear
7:15 AM 37.4 °F 31.4 °F 26.6 °F 65% 30.06 in 10.0 mi NW 8.1 mph - N/A   Clear
7:55 AM 39.2 °F 35.9 °F 24.8 °F 56% 30.06 in 10.0 mi WNW 4.6 mph - N/A   Clear
8:15 AM 39.2 °F - 24.8 °F 56% 30.07 in 10.0 mi Calm Calm - N/A   Clear
8:35 AM 41.0 °F 38.0 °F 26.6 °F 57% 30.07 in 10.0 mi East 4.6 mph - N/A   Clear
8:55 AM 42.8 °F 40.1 °F 26.6 °F 53% 30.08 in 10.0 mi ESE 4.6 mph - N/A   Clear
9:15 AM 44.6 °F 40.7 °F 24.8 °F 46% 30.07 in 10.0 mi East 6.9 mph - N/A   Clear
9:35 AM 46.4 °F 44.3 °F 24.8 °F 43% 30.07 in 10.0 mi NE 4.6 mph - N/A   Clear
9:55 AM 46.4 °F 45.2 °F 24.8 °F 43% 30.07 in 10.0 mi West 3.5 mph - N/A   Clear
10:15 AM 46.4 °F 45.2 °F 24.8 °F 43% 30.07 in 10.0 mi WNW 3.5 mph - N/A   Clear
10:35 AM 48.2 °F - 24.8 °F 40% 30.07 in 10.0 mi East 3.5 mph - N/A   Clear
10:55 AM 48.2 °F - 24.8 °F 40% 30.06 in 10.0 mi ESE 8.1 mph - N/A   Clear
11:15 AM 50.0 °F - 24.8 °F 37% 30.06 in 10.0 mi ENE 5.8 mph - N/A   Clear
11:35 AM 50.0 °F - 23.0 °F 35% 30.05 in 10.0 mi SSE 3.5 mph - N/A   Clear
11:55 AM 50.0 °F - 23.0 °F 35% 30.04 in 10.0 mi NE 5.8 mph - N/A   Clear
12:15 PM 53.6 °F - 23.0 °F 30% 30.03 in 10.0 mi NE 4.6 mph - N/A   Clear
12:35 PM 55.4 °F - 23.0 °F 29% 30.03 in 10.0 mi Calm Calm - N/A   Clear
12:55 PM 55.4 °F - 17.6 °F 23% 30.03 in 10.0 mi NNW 9.2 mph - N/A   Clear
1:15 PM 55.4 °F - 17.6 °F 23% 30.02 in 10.0 mi NW 3.5 mph - N/A   Clear
1:35 PM 55.4 °F - 15.8 °F 21% 30.01 in 10.0 mi North 5.8 mph - N/A   Clear
1:55 PM 55.4 °F - 15.8 °F 21% 30.00 in 10.0 mi ESE 3.5 mph - N/A   Clear
2:15 PM 55.4 °F - 15.8 °F 21% 29.99 in 10.0 mi North 6.9 mph - N/A   Clear
2:35 PM 57.2 °F - 17.6 °F 21% 29.98 in 10.0 mi NNW 13.8 mph 17.3 mph N/A   Clear
2:55 PM 55.4 °F - 17.6 °F 23% 29.98 in 10.0 mi NNW 11.5 mph - N/A   Clear
3:15 PM 57.2 °F - 17.6 °F 21% 29.97 in 10.0 mi NE 8.1 mph - N/A   Clear
3:35 PM 57.2 °F - 15.8 °F 20% 29.97 in 10.0 mi North 5.8 mph - N/A   Clear
3:55 PM 59.0 °F - 17.6 °F 20% 29.97 in 10.0 mi NW 10.4 mph - N/A   Clear
4:15 PM 59.0 °F - 19.4 °F 22% 29.97 in 10.0 mi WNW 6.9 mph - N/A   Clear
4:35 PM 57.2 °F - 19.4 °F 23% 29.97 in 10.0 mi North 11.5 mph - N/A   Clear
4:55 PM 55.4 °F - 19.4 °F 25% 29.96 in 10.0 mi NNW 11.5 mph - N/A   Partly Cloudy
5:15 PM 57.2 °F - 21.2 °F 25% 29.96 in 10.0 mi North 4.6 mph - N/A   Mostly Cloudy
5:35 PM 57.2 °F - 23.0 °F 27% 29.96 in 10.0 mi NNW 8.1 mph - N/A   Overcast
5:55 PM 55.4 °F - 21.2 °F 26% 29.96 in 10.0 mi North 11.5 mph - N/A   Overcast
6:15 PM 53.6 °F - 15.8 °F 22% 29.97 in 10.0 mi North 12.7 mph - N/A   Overcast
6:35 PM 53.6 °F - 17.6 °F 24% 29.97 in 10.0 mi North 9.2 mph - N/A   Mostly Cloudy
6:55 PM 51.8 °F - 17.6 °F 26% 29.97 in 10.0 mi NNW 6.9 mph - N/A   Partly Cloudy
7:15 PM 50.0 °F - 17.6 °F 28% 29.97 in 10.0 mi NNW 12.7 mph - N/A   Clear
7:35 PM 50.0 °F - 17.6 °F 28% 29.98 in 10.0 mi NNW 12.7 mph 18.4 mph N/A   Clear
7:55 PM 48.2 °F - 14.0 °F 25% 30.00 in 10.0 mi NNW 15.0 mph 19.6 mph N/A   Mostly Cloudy
8:15 PM 48.2 °F - 10.4 °F 22% 30.00 in 10.0 mi NNW 13.8 mph 23.0 mph N/A   Overcast
8:35 PM 46.4 °F 44.3 °F 10.4 °F 23% 30.02 in 10.0 mi East 4.6 mph - N/A   Overcast
8:55 PM 46.4 °F 41.9 °F 8.6 °F 22% 30.03 in 10.0 mi East 9.2 mph - N/A   Mostly Cloudy
9:15 PM 46.4 °F - 8.6 °F 22% 30.03 in 10.0 mi Calm Calm - N/A   Clear
9:35 PM 44.6 °F 43.1 °F 8.6 °F 23% 30.03 in 10.0 mi WNW 3.5 mph - N/A   Clear
9:55 PM 44.6 °F 41.4 °F 6.8 °F 21% 30.03 in 10.0 mi NNW 5.8 mph - N/A   Clear
10:15 PM 42.8 °F 37.5 °F 6.8 °F 23% 30.04 in 10.0 mi North 9.2 mph - N/A   Clear
10:35 PM 41.0 °F 36.4 °F 6.8 °F 24% 30.06 in 10.0 mi NNW 6.9 mph - N/A   Clear
10:55 PM 41.0 °F 32.5 °F 6.8 °F 24% 30.06 in 10.0 mi NNW 17.3 mph 24.2 mph N/A   Clear
11:15 PM 41.0 °F 32.5 °F 6.8 °F 24% 30.07 in 10.0 mi NNW 17.3 mph - N/A   Clear
11:35 PM 39.2 °F 31.6 °F 5.0 °F 24% 30.07 in 10.0 mi NW 12.7 mph - N/A   Clear
11:55 PM 39.2 °F 34.2 °F 5.0 °F 24% 30.07 in 10.0 mi North 6.9 mph - N/A   Clear